Flag for U.S.A. Weather past 2 weeks in Olathe, Kansas, U.S.A.

Now
57 °F

Clear.


Feels Like: 57 °F
Forecast: 45 / 76 °F
Wind: 5 mph from Southwest

Location: Johnson County Executive Airport

Current Time: Mar 31, 2015 at 2:43:00 AM

Latest Report: Mar 31, 2015 at 1:53 AM


Visibility: 10 mi

Pressure: 29.93 "Hg

Humidity: 47%

Dew point: 37 °F

Location of OlatheLocation

Historic Weather in Olathe — Graph

°F

Olathe temperature yesterday

Maximum temperature yesterday: 71 °F (at 3:53 PM)
Minimum temperature yesterday: 36 °F (at 5:53 AM)
Average temperature yesterday: 55 °F

Past Weeks' High & Low Weather Summary

 TemperatureHumidityPressure
High80 °F (Mar 16, 2:53 PM)100% (Mar 19, 1:53 AM)30.35 "Hg (Mar 19, 1:53 AM)
Low32 °F (Mar 20, 6:53 AM)21% (Mar 30, 1:53 PM)29.76 "Hg (Mar 24, 4:53 PM)
Average49 °F65%30.08 "Hg
* Reported Mar 16 12:53 AM — Mar 31 12:53 AM, Olathe, Weather by CustomWeather, © 2015

Note: Actual official high and low records may vary slightly from our data, if they occured in-between our weather recording intervals... More about our weather records

Advertising

Olathe weather history for previous 24 hours

 ConditionsComfort  
Time TempWeatherWind HumidityBarometerVisibility
12:53 AM
Tue, Mar 31
57 °FClear.7 mph46%29.93 "Hg10 mi
11:53 PM
Mon, Mar 30
58 °FClear.7 mph41%29.93 "Hg10 mi
10:53 PM57 °FClear.7 mph44%29.94 "Hg10 mi
9:53 PM58 °FClear.6 mph41%29.96 "Hg10 mi
8:53 PM59 °FClear.6 mph41%29.97 "Hg10 mi
7:53 PM62 °FSunny.6 mph34%29.96 "Hg10 mi
6:53 PM68 °FSunny.7 mph25%29.97 "Hg10 mi
5:53 PM70 °FSunny.13 mph23%29.97 "Hg10 mi
4:53 PM71 °FSunny.14 mph23%29.98 "Hg10 mi
3:53 PM71 °FSunny.12 mph22%30.01 "Hg10 mi
2:53 PM70 °FSunny.16 mph23%30.05 "Hg10 mi
1:53 PM69 °FSunny.10 mph21%30.10 "Hg10 mi
12:53 PM66 °FSunny.9 mph25%30.13 "Hg10 mi
11:53 AM63 °FSunny.12 mph27%30.15 "Hg10 mi
10:53 AM61 °FSunny.10 mph39%30.16 "Hg10 mi
9:53 AM55 °FSunny.10 mph53%30.16 "Hg10 mi
8:53 AM47 °FSunny.5 mph71%30.19 "Hg10 mi
7:53 AM39 °FClear.3 mph82%30.19 "Hg10 mi
6:53 AM38 °FClear.No wind83%30.18 "Hg10 mi
5:53 AM36 °FClear.No wind92%30.16 "Hg10 mi
4:53 AM40 °FClear.No wind77%30.16 "Hg10 mi
3:53 AM41 °FClear.No wind74%30.16 "Hg10 mi
2:53 AM42 °FClear.5 mph73%30.17 "Hg10 mi
Weather by CustomWeather, © 2015

See weather overviewHow to use our weather pages